Location: Wilhelmshaven
(53.5279°N, 8.1063°E)
Time: 21:32:25
(UTC+02:00)

ISS - Pass Details

Date: 11 July 2022
Orbit: 412 x 420 km, 51.6° (Epoch: 19 August)

Event Time Altitude Azimuth Distance (km) Brightness Sun altitude
Rises 23:14:38 0° 203° (SSW) 2,341 -0.3 -8.7°
Reaches altitude 10° 23:17:23 10° 179° (S) 1,485 -1.5 -9.0°
Maximum altitude 23:19:18 15° 143° (SE) 1,239 -2.0 -9.1°
Drops below altitude 10° 23:21:15 10° 108° (ESE) 1,493 -1.4 -9.3°
Sets 23:24:01 0° 83° (E) 2,363 -0.2 -9.5°
